This demonstration page uses our WeatherBlox Daily Observations layout. Learn more.

Left ArrowRight Arrow

38.20091, -84.87328

Hourly Observations for September 6, 2022

Temp ( °F °C ) Dew Point ( °F °C ) Humidity (%) Winds ( mph kmh ) Pressure ( in mb ) Visibility ( mi km ) Precip ( " mm )
12:44 am 00:44 Partly Cloudy with Mist and Fog 69 20.6 68 20 96 96 NNW 3 6 29.99 1016 4 6 0.00 0.00
12:53 am 00:53 Partly Cloudy with Mist and Fog 69 20.6 68 20 96 96 Calm 29.99 1016 5 8 0.00 0.00
1:53 am 01:53 Mostly Cloudy 68 20 67 19.4 96 96 Calm 29.98 1015 9 14 0.00 0.00
2:16 am 02:16 Cloudy with Mist and Fog 68 20 67 19.4 96 96 Calm 29.98 1015 2 3 0.00 0.00
2:21 am 02:21 Cloudy with Mist and Fog 68 20 67 19.4 96 96 Calm 29.98 1015 1 2 0.00 0.00
2:29 am 02:29 Mostly Clear with Fog 69 20.6 68 20 96 96 W 3 6 29.99 1016 1 1 0.00 0.00
2:38 am 02:38 Mostly Clear with Fog 69 20.6 68 20 96 96 Calm 29.98 1015 0 0 0.00 0.00
2:53 am 02:53 Mostly Clear with Fog 68 20 68 20 100 100 Calm 29.98 1015 0 0 0.00 0.00
3:53 am 03:53 Mostly Clear with Fog 69 20.6 68 20 96 96 Calm 29.97 1015 0 0 0.00 0.00
4:53 am 04:53 Mostly Clear with Fog 70 21.1 69 20.6 97 97 Calm 29.98 1015 0 0 0.00 0.00
5:53 am 05:53 Mostly Clear with Fog 70 21.1 69 20.6 97 97 Calm 29.98 1015 0 0 0.00 0.00
6:06 am 06:06 Mostly Clear with Fog 70 21.1 69 20.6 97 97 Calm 29.98 1015 1 1 0.00 0.00
6:15 am 06:15 Mostly Clear with Fog 70 21.1 69 20.6 97 97 Calm 29.99 1015 0 0 0.00 0.00
6:53 am 06:53 Mostly Clear with Fog 70 21.1 69 20.6 97 97 Calm 29.99 1016 0 0 0.00 0.00
7:03 am 07:03 Mostly Clear with Fog 70 21.1 69 20.6 97 97 Calm 30.00 1016 1 1 0.00 0.00
7:28 am 07:28 Partly Cloudy with Fog 70 21.1 69 20.6 97 97 Calm 30.02 1017 0 0 0.00 0.00
7:53 am 07:53 Partly Cloudy with Fog 70 21.1 69 20.6 97 97 Calm 30.02 1017 0 0 0.00 0.00
8:09 am 08:09 Partly Cloudy with Fog 70 21.1 69 20.6 97 97 Calm 30.03 1017 1 1 0.00 0.00
8:23 am 08:23 Partly Cloudy with Fog 70 21.1 69 20.6 97 97 Calm 30.02 1017 0 0 0.00 0.00
8:53 am 08:53 Partly Cloudy with Fog 70 21.1 70 21.1 100 100 Calm 30.03 1017 1 1 0.00 0.00
9:22 am 09:22 Partly Cloudy with Fog 71 21.7 70 21.1 96 96 N 3 6 30.03 1017 0 0 0.00 0.00
9:53 am 09:53 Partly Cloudy with Fog 71 21.7 70 21.1 96 96 Calm 30.04 1017 1 1 0.00 0.00
10:03 am 10:03 Cloudy with Mist and Fog 71 21.7 70 21.1 96 96 NNE 3 6 30.04 1017 1 2 0.00 0.00
10:33 am 10:33 Cloudy with Mist and Fog 71 21.7 70 21.1 96 96 N 5 7 30.05 1018 3 4 0.00 0.00
10:53 am 10:53 Cloudy 72 22.2 70 21.1 93 93 N 3 6 30.05 1018 7 11 0.00 0.00
11:04 am 11:04 Cloudy 73 22.8 70 21.1 90 90 NNW 6 9 30.04 1017 10 16 0.00 0.00
11:18 am 11:18 Cloudy 74 23.3 70 21.1 87 87 NE 3 6 30.04 1017 10 16 0.00 0.00
11:27 am 11:27 Cloudy 74 23.3 70 21.1 87 87 NNE 3 6 30.05 1018 10 16 0.00 0.00
11:39 am 11:39 Cloudy 75 23.9 71 21.7 88 88 N 3 6 30.05 1018 10 16 0.00 0.00
11:53 am 11:53 Cloudy 75 23.9 70 21.1 84 84 NNE 3 6 30.06 1018 10 16 0.00 0.00
12:01 pm 12:01 Cloudy 76 24.4 71 21.7 85 85 NE 3 6 30.05 1018 10 16 0.00 0.00
12:53 pm 12:53 Mostly Cloudy 77 25 69 20.6 77 77 Calm 30.05 1018 10 16 0.00 0.00
1:53 pm 13:53 Mostly Sunny 81 27.2 71 21.7 72 72 S 3 6 30.03 1017 10 16 0.00 0.00
2:27 pm 14:27 Mostly Cloudy 81 27.2 70 21.1 69 69 undefined N/A 30.02 1017 10 16 0.00 0.00
2:53 pm 14:53 Cloudy 75 23.9 68 20 79 79 NE 8 13 30.04 1017 10 16 0.00 0.00
3:01 pm 15:01 Cloudy 75 23.9 68 20 79 79 NNE 10 17 30.04 1017 10 16 0.00 0.00
3:26 pm 15:26 Cloudy 74 23.3 69 20.6 85 85 NNW 10 17 30.03 1017 10 16 0.01 0.13
3:34 pm 15:34 Cloudy 73 22.8 68 20 84 84 NNW 10 17 30.03 1017 10 16 0.01 0.13
3:53 pm 15:53 Cloudy with Light Rain 73 22.8 68 20 84 84 N 7 11 30.04 1017 10 16 0.01 0.13
4:19 pm 16:19 Mostly Cloudy 74 23.3 69 20.6 85 85 NNE 7 11 30.01 1016 10 16 0.01 0.13
4:26 pm 16:26 Cloudy 74 23.3 69 20.6 85 85 NNE 7 11 30.01 1016 10 16 0.01 0.13
4:43 pm 16:43 Mostly Cloudy with Light Rain 74 23.3 68 20 82 82 N 9 15 30.00 1016 10 16 0.01 0.13
4:53 pm 16:53 Cloudy with Light Rain 73 22.8 68 20 84 84 NNW 10 17 30.01 1016 10 16 0.01 0.13
5:53 pm 17:53 Sunny 75 23.9 67 19.4 76 76 NNE 8 13 30.01 1016 10 16 0.01 0.13
6:53 pm 18:53 Mostly Sunny 75 23.9 67 19.4 76 76 VRB 5 7 30.02 1017 10 16 0.00 0.00
7:53 pm 19:53 Sunny 73 22.8 68 20 84 84 Calm 30.03 1017 10 16 0.00 0.00
8:53 pm 20:53 Clear 71 21.7 68 20 90 90 Calm 30.04 1017 10 16 0.00 0.00
9:53 pm 21:53 Mostly Clear 70 21.1 68 20 93 93 Calm 30.05 1018 10 16 0.00 0.00
10:53 pm 22:53 Clear 68 20 66 18.9 93 93 NW 3 6 30.06 1018 10 16 0.00 0.00
11:53 pm 23:53 Clear 68 20 67 19.4 96 96 NNW 3 6 30.05 1018 10 16 0.00 0.00

Powered by AerisWeather